Temp_Advection
nan nan nan nan nan nan nan nan nan nan nan nan nan nan nan nan nan nan nan nan nan nan nan nan nan nan nan nan nan nan nan nan nan nan nan nan nan nan nan nan nan nan nan nan nan nan nan nan nan nan nan nan nan nan nan nan nan nan nan nan nan nan nan nan nan nan nan nan nan
nan 0 0 -0 0 0 0 0 -0 -0 0 0 -0 -0 -0 -0 -0 -0 -0 -0 -0 -0 -0 -0 -1 -1 -1 -1 -1 -1 -0 -0 -0 -0 0 1 1 -0 -1 -1 -0 -1 -1 -0 0 0 -0 -1 -1 -0 -0 0 1 1 1 1 1 1 1 1 0 -0 -1 -1 -0 1 1 1 nan
nan 0 -0 -0 -0 0 0 0 -0 -0 -0 -0 0 0 -0 -0 -0 -0 -0 -0 -0 -0 -0 -1 -1 -1 -1 -1 -1 -0 -0 -0 -0 0 1 1 1 0 -1 -1 -0 -0 0 1 0 -0 -1 -1 -0 -0 0 0 1 1 1 1 0 1 1 1 -0 -1 -1 -1 0 1 1 1 nan
nan 0 0 -0 -0 -0 0 -0 -0 -0 -0 -0 0 0 0 -0 -0 -0 -0 -0 -0 -0 -0 -1 -1 -1 -1 -0 -0 -0 -0 -0 -0 0 1 1 1 1 -1 -1 0 0 1 1 0 -0 -1 -0 -0 -0 -0 -0 0 0 0 0 0 1 1 -0 -1 -1 -1 0 1 1 0 0 nan
nan 1 0 0 0 0 0 -0 -0 -0 0 0 0 0 0 0 -0 -0 -0 -0 -0 -0 -0 -1 -0 -0 -0 -0 -0 0 -0 -0 -0 0 1 1 1 1 -0 -0 -0 0 0 0 -0 -0 -0 -0 -0 -0 -0 -0 0 0 0 0 0 0 -0 -1 -1 -1 0 1 1 0 0 0 nan
nan 1 1 1 0 0 0 0 0 0 0 0 0 0 0 0 -0 -0 -0 -0 -0 -0 -0 -0 -0 -0 -0 0 -0 -0 -0 -0 -0 0 1 1 1 0 -0 -1 -1 -1 -0 -0 0 -0 -0 -0 -0 -0 0 0 0 0 0 0 0 0 -0 -0 -0 0 0 0 0 0 0 1 nan
nan 1 1 1 1 0 0 0 0 -0 -0 -0 0 0 0 0 0 0 -0 -0 -0 -0 -0 -0 -0 -0 -0 -0 -0 -0 -0 -0 -0 0 1 1 1 -0 -1 -2 -2 -1 -0 0 0 -1 -1 -0 -0 -0 0 0 0 0 0 0 0 0 0 0 0 0 0 0 0 1 1 1 nan
nan 0 1 1 1 0 0 0 0 -0 -0 -0 0 0 0 0 0 0 0 0 -0 -0 -0 -0 -0 -0 -0 -0 -0 0 0 0 0 0 0 0 0 -1 -1 -2 -1 -1 0 0 -0 -1 -1 -0 -0 -0 0 0 0 0 0 0 0 0 0 -0 -0 0 0 0 1 1 1 1 nan
nan 0 1 1 0 0 0 0 0 0 -0 -0 -0 0 0 0 0 0 0 0 0 -0 -0 -0 -0 -0 -0 -0 0 0 0 0 -0 -0 -0 -0 -0 -1 -1 -1 -0 0 0 0 -0 -0 -0 0 0 0 0 0 0 0 0 0 -0 -0 -0 -0 0 0 0 1 1 0 0 0 nan
nan 0 0 1 1 1 0 0 0 0 -0 -0 -0 -0 -0 0 0 0 0 0 0 0 0 -0 -0 -0 -0 -0 0 0 0 0 -0 -0 -0 -0 -0 -0 -0 -0 0 0 0 -0 -0 0 0 0 0 0 0 0 0 0 0 -0 -0 -0 -0 -0 0 0 1 1 0 0 0 0 nan
nan 0 -0 0 1 1 1 0 0 0 0 -0 -0 -0 -0 -0 0 0 0 0 0 0 0 -0 -0 -0 -0 -0 -0 0 0 -0 -0 -0 -0 -0 -0 0 0 0 -0 -0 -1 -1 -0 -0 0 0 0 0 0 0 0 0 0 0 0 0 0 0 0 0 0 0 0 0 0 0 nan
nan 0 0 -0 -0 0 0 0 1 1 0 0 0 -0 -0 -0 -0 0 0 0 0 0 -0 -0 -0 0 0 -0 -0 -0 -0 -0 -0 -0 -0 -0 0 0 -0 -0 -1 -1 -1 -1 -0 -0 -0 -0 0 0 0 0 0 0 0 0 0 0 0 0 0 0 0 0 0 0 0 0 nan
nan 0 0 0 -0 -0 0 0 0 1 1 0 0 0 0 -0 -0 -0 -0 -0 0 0 -0 -0 0 0 -0 -0 -0 -0 -0 -0 -1 -0 -0 0 0 -0 -0 -0 -0 -0 -0 0 0 -0 -0 0 0 0 0 -0 0 0 0 0 0 0 0 0 0 0 0 0 0 0 0 0 nan
nan -0 0 0 0 -0 -0 -0 0 0 0 0 0 0 0 0 0 -0 -0 -0 -0 -0 -0 -0 0 0 0 -0 -0 -1 -1 -0 -0 -0 -0 -0 -0 -0 -1 -1 -0 -0 0 0 1 0 1 0 0 0 0 0 0 0 0 0 0 0 0 0 0 0 0 0 0 0 0 -0 nan
nan -0 -0 0 0 0 0 -0 -0 -0 0 0 0 0 0 0 0 0 0 -0 -0 -0 0 -0 0 0 0 -0 -1 -1 -0 -0 0 0 0 -0 -0 -0 -0 -0 -0 0 0 0 1 1 1 1 1 0 0 0 0 0 0 0 0 0 0 0 0 0 0 1 0 0 -0 -0 nan
nan 0 0 0 0 0 0 0 -0 -0 0 0 -0 0 0 0 0 0 0 -0 -0 0 0 0 -0 0 -0 -0 -0 -0 -0 -0 0 0 0 -0 -0 -0 0 0 0 0 0 0 1 1 1 1 1 0 0 0 0 0 0 0 0 0 0 0 0 0 1 1 -0 -0 -0 -0 nan
nan -0 0 0 0 0 0 0 -0 -0 -0 0 -0 -0 0 0 0 -0 -0 -0 0 0 0 0 0 0 0 -0 -0 -0 -0 -0 -0 -0 -0 -0 -0 -0 -0 0 0 0 0 0 1 1 1 0 0 0 0 0 0 0 0 0 0 0 0 0 0 1 0 -0 -0 -0 0 0 nan
nan -0 -0 -0 -0 0 0 0 -0 -0 -0 0 -0 -0 -0 -0 -0 -0 -0 -0 0 0 0 -0 -0 -0 0 0 0 0 -0 -0 -0 -0 -0 -0 0 0 0 0 0 0 0 0 0 0 0 0 -0 -0 -0 -0 0 0 0 0 0 0 0 0 1 0 0 -0 0 0 0 0 nan
nan -0 -0 -0 -0 -0 -0 -0 -0 -0 -0 -0 -0 -0 -0 -0 -0 -0 -0 -0 0 0 0 -0 -0 -0 0 0 0 0 0 -0 -0 -0 -0 -0 0 0 0 0 0 0 0 0 0 0 -0 -0 -0 -0 -0 0 0 0 0 0 0 0 0 0 0 -0 0 0 0 0 0 0 nan
nan 0 -0 -0 -0 -0 -0 -0 -0 -0 -0 -0 -0 -0 0 -0 -0 -0 0 0 0 0 0 0 0 0 0 0 0 0 0 0 0 0 -0 -0 0 0 0 0 0 0 0 0 -0 -0 -0 -0 -0 -0 0 0 0 0 0 1 0 0 0 0 0 0 0 0 0 0 0 0 nan
nan 0 0 -0 -0 -0 0 0 0 -0 -0 -0 -0 -0 -0 0 -0 -0 0 0 0 -0 0 0 0 0 0 0 0 0 0 0 0 0 0 -0 -0 -0 0 0 0 0 -0 -0 -0 -0 -0 -0 -0 0 0 0 0 0 0 0 0 0 0 0 0 0 0 0 0 0 0 0 nan
nan 0 0 0 -0 -0 -0 0 0 0 0 -0 0 0 -0 -0 -0 -0 -0 0 -0 -0 -0 0 0 0 0 0 -0 -0 -0 0 0 0 -0 -0 -0 -0 -0 -0 -0 -0 -0 -0 -0 -0 -0 -0 0 0 0 0 0 0 0 0 0 0 0 0 0 -0 -0 -0 -0 -0 -0 -0 nan
nan 0 0 0 0 -0 -0 0 0 0 0 0 0 0 -0 -0 0 0 0 -0 -0 -0 0 0 0 -0 -0 0 -0 -0 -0 -0 -0 -0 -0 -0 -0 -0 -0 -0 -0 -0 -0 -0 -0 -0 -0 0 0 0 0 0 0 0 0 0 0 -0 -0 -0 -0 -0 -0 -0 -0 -0 -0 -0 nan
nan 0 0 0 0 0 -0 0 -0 0 0 0 0 0 0 0 0 0 0 0 0 0 0 0 0 -0 -0 0 -0 -0 -0 -0 -0 -0 -0 -0 -0 -0 -0 -0 -0 -0 -0 -0 -0 0 0 0 0 0 0 0 0 0 0 0 0 0 -0 -0 -0 -0 -0 -0 -0 -0 -0 -0 nan
nan 0 0 0 0 0 0 -0 -0 -0 0 0 0 0 0 0 0 0 0 0 0 0 0 0 -0 -0 -0 -0 0 0 -0 -0 -0 -0 -0 -0 -0 -0 -0 -0 -0 -0 -0 -0 0 0 0 0 0 0 0 0 0 0 0 0 0 0 0 0 -0 -0 -0 -0 0 0 -0 -0 nan
nan 0 0 0 0 0 0 0 0 0 0 0 0 0 0 0 0 0 0 0 0 0 -0 -0 -0 -0 -0 -0 -0 -0 -0 -0 0 0 0 0 0 0 0 0 0 0 0 0 0 0 0 0 0 0 0 0 0 0 0 0 0 0 0 0 0 -0 -0 -0 -0 0 0 0 nan
nan 0 -0 -0 0 0 0 0 0 0 0 0 0 0 0 0 -0 -0 -0 0 0 -0 -0 -0 -0 -0 0 0 0 -0 -0 -0 0 0 0 0 0 0 0 0 0 0 0 0 0 0 0 0 0 -0 -0 -0 0 0 0 -0 -0 -0 -0 0 0 0 -0 -0 -0 -0 -0 -0 nan
nan 0 0 0 0 0 0 0 0 0 0 0 0 0 -0 -0 -0 -0 -0 -0 -0 0 0 0 0 0 0 0 0 -0 -0 0 0 0 0 0 0 0 0 0 0 0 0 0 0 0 0 0 0 0 0 0 0 0 0 0 -0 -0 -0 0 0 0 0 0 -0 -0 -0 -0 nan
nan 0 0 0 0 0 0 0 0 0 0 0 0 0 0 -0 -0 -0 -0 -0 -0 -0 0 0 0 0 -0 -0 0 0 0 0 0 0 0 0 0 0 0 0 0 0 0 0 0 -0 -0 0 0 0 0 0 0 0 0 0 -0 -0 0 0 0 0 0 0 0 0 -0 -0 nan
nan 0 0 0 0 0 0 0 0 0 0 0 0 0 0 -0 -0 -0 -0 -0 -0 -0 -0 -0 -0 -0 0 0 0 0 0 0 0 0 0 0 0 0 0 0 0 0 0 0 0 -0 -1 -0 -0 -0 -0 -0 -0 -0 -0 -0 -0 0 0 0 0 0 0 0 0 0 0 0 nan
nan 0 0 0 0 0 0 0 0 0 0 0 0 0 0 0 0 0 -0 0 0 0 -0 -0 0 -0 -0 -0 0 0 -0 -0 -0 -0 -0 -0 -0 -0 0 -0 -0 -0 -0 0 0 -0 -0 -1 -0 -1 -1 -0 -0 -0 -0 -0 0 0 0 0 0 -0 -0 -0 -0 -0 0 0 nan
nan 0 0 0 -0 0 0 0 0 0 -0 0 0 0 0 0 0 0 0 -0 -0 0 0 -0 -0 -0 -0 -0 -0 -0 0 0 0 0 -0 -0 -0 -0 -0 -0 -0 -0 -0 -0 -0 -0 -0 -0 -0 -0 -0 -0 -0 -0 -0 -0 0 0 0 0 -0 -0 -0 -0 -0 -0 -0 0 nan
nan 0 -0 -0 -0 -0 -0 -0 -0 -0 0 0 -0 -0 0 0 0 0 0 0 0 0 -0 -0 -0 -0 0 -0 -0 0 0 1 0 -0 -0 -0 -0 -0 -0 -0 0 -0 -0 -0 -0 0 0 0 0 0 0 0 -0 -0 0 0 0 0 -0 -0 -0 -0 -0 -0 -0 -0 0 0 nan
nan -0 -0 -0 -0 -0 -0 -0 -0 0 0 0 0 -0 -0 -0 -0 0 0 0 -0 0 0 0 -0 -0 -0 0 0 0 0 -0 -0 -0 0 -0 -0 -0 -0 -0 0 0 0 0 0 0 0 0 0 -0 0 0 0 0 0 0 0 -0 -0 -0 -0 -0 -0 -0 0 0 0 0 nan
nan -0 -0 -0 -0 -0 -0 -0 -0 0 0 -0 -0 -0 -0 0 0 0 0 0 0 0 0 0 0 0 -0 -0 0 0 -0 -0 -0 0 0 0 -0 -0 -0 -0 0 0 0 0 0 -0 -0 0 -0 -0 0 0 0 0 0 0 0 -0 -0 -0 -0 -0 -0 0 0 0 0 -0 nan
nan -0 -0 0 0 0 -0 -0 -0 -0 -0 -0 -0 0 0 0 -0 -0 -0 0 0 0 0 0 0 0 0 0 0 0 -0 -0 -0 -0 0 0 0 -0 -0 -0 -0 -0 0 0 0 -0 -0 -0 -0 0 0 0 0 0 0 0 -0 -0 -0 -0 0 0 0 0 0 0 0 0 nan
nan 0 0 0 0 0 -0 -0 -0 -0 -0 -0 0 0 0 -0 -0 -0 0 0 -0 -0 0 0 0 0 0 0 0 0 0 -0 -0 -0 -0 -0 0 0 -0 -0 -0 -0 -0 -0 0 0 0 0 0 0 0 0 0 0 0 -0 -0 -0 0 0 0 0 0 0 0 0 0 0 nan
nan 0 0 0 0 -0 -0 -0 -0 -0 0 0 0 0 -0 -0 -0 -0 -0 0 0 -0 -0 -0 0 0 0 0 0 0 0 0 0 -0 -0 -0 0 0 0 0 -0 -0 -0 -0 -0 -0 0 0 0 0 -0 -0 -0 -0 -0 -0 -0 0 0 0 0 0 0 0 0 0 0 0 nan
nan 0 0 0 -0 -0 -0 -0 0 0 0 0 -0 -0 -0 -0 -0 -0 -0 0 0 0 -0 -0 0 0 0 -0 -0 -0 -0 0 0 0 0 -0 0 0 0 0 0 -0 -0 -0 -0 -0 0 -0 -0 -0 -0 -0 -0 -0 -0 -0 0 0 0 -0 -0 -0 0 0 0 0 0 0 nan
nan 0 0 -0 -0 0 0 0 0 0 0 0 0 0 0 0 0 -0 -0 -0 0 0 0 0 0 0 0 -0 -0 -0 -0 -0 0 0 0 0 0 0 0 0 0 0 0 0 0 0 0 0 -0 -0 0 0 -0 0 0 0 -0 -0 -0 -0 -0 -0 0 0 0 0 0 0 nan
nan nan nan nan nan nan nan nan nan nan nan nan nan nan nan nan nan nan nan nan nan nan nan nan nan nan nan nan nan nan nan nan nan nan nan nan nan nan nan nan nan nan nan nan nan nan nan nan nan nan nan nan nan nan nan nan nan nan nan nan nan nan nan nan nan nan nan nan nan
Wind_Speed
20 21 23 25 26 27 27 26 25 24 24 24 24 23 23 23 22 22 22 21 21 21 21 21 21 21 22 22 22 22 23 24 24 25 26 26 27 26 26 27 29 29 28 25 25 27 29 29 29 30 32 33 33 33 32 31 30 30 29 29 29 30 31 32 32 33 34 33 30
20 22 24 26 27 26 24 23 22 22 21 21 20 20 20 19 19 19 19 19 19 19 19 19 19 20 21 22 22 23 23 24 25 25 25 25 26 25 24 24 24 23 23 23 25 27 29 29 28 29 31 31 32 32 31 30 30 29 28 29 30 31 32 33 34 35 34 31 27
21 22 23 24 24 23 21 19 19 19 18 17 17 16 16 16 17 17 17 17 17 17 18 18 19 20 21 22 23 23 24 24 25 26 26 27 27 26 23 21 20 23 25 27 28 29 29 28 27 26 27 28 29 29 29 28 26 26 26 28 30 32 33 34 35 35 32 28 25
21 21 22 22 21 19 18 17 17 17 16 15 15 15 15 15 15 16 16 16 16 17 18 18 19 20 21 21 22 22 23 23 24 25 27 28 28 26 23 20 23 27 29 30 32 31 29 26 24 23 23 24 25 25 24 23 22 22 24 27 30 32 34 35 34 32 28 25 24
21 21 20 19 18 17 16 16 16 16 15 14 14 15 15 15 15 16 16 17 17 18 18 19 20 20 20 20 20 20 20 21 22 24 26 27 27 26 23 21 27 31 32 32 33 32 29 25 22 21 21 21 21 20 20 19 20 22 25 29 31 33 33 32 30 27 25 23 22
21 21 19 18 16 15 15 15 15 16 16 15 15 14 14 15 15 16 17 18 18 19 19 19 20 20 19 19 18 18 18 19 21 23 24 25 26 25 23 23 29 34 35 34 34 32 28 23 21 19 18 17 17 17 17 20 23 25 28 29 30 30 29 27 25 23 22 21 20
21 20 18 16 15 14 14 14 15 16 17 17 15 13 13 13 14 16 17 18 19 19 19 19 19 18 18 17 17 17 18 19 21 23 24 25 25 23 22 24 30 34 35 33 32 30 26 22 19 17 16 15 15 15 17 20 23 24 25 25 25 25 23 22 21 21 20 19 17
20 19 17 15 14 13 13 13 14 16 17 17 16 14 13 13 14 15 16 17 17 17 17 16 16 16 16 17 18 18 18 19 21 22 23 23 22 21 22 24 29 33 33 31 30 27 23 20 17 16 15 15 15 16 17 18 20 20 20 20 20 20 20 20 19 19 18 18 16
20 20 19 17 14 13 13 13 14 15 16 16 16 15 15 15 15 16 16 15 15 14 14 14 14 15 16 18 19 19 19 18 19 19 19 18 18 18 20 24 28 30 30 29 28 25 21 18 16 16 15 15 15 16 16 17 18 18 18 18 19 19 19 18 18 18 17 17 15
20 22 22 20 17 14 13 14 15 15 15 15 15 15 16 17 17 17 16 15 13 12 12 13 14 16 18 19 20 19 17 16 15 14 13 13 15 17 20 23 27 29 28 27 26 23 19 17 17 17 17 16 15 15 15 16 16 17 17 18 18 18 18 18 17 17 17 16 15
18 21 23 23 19 16 14 14 15 15 15 15 14 15 15 17 17 17 16 15 13 13 13 13 15 17 18 19 17 16 14 14 14 14 12 12 14 17 21 25 27 28 27 25 23 20 17 17 18 18 18 17 16 14 14 15 15 16 17 17 18 18 18 18 17 17 17 16 15
16 18 20 22 20 16 14 14 16 16 16 15 14 14 14 15 16 16 15 14 14 14 14 15 16 16 14 13 11 11 13 15 16 15 13 13 16 20 24 26 27 26 24 22 19 17 16 17 18 18 17 16 15 14 14 14 15 15 16 16 17 18 18 18 18 17 16 15 14
15 15 16 19 20 18 16 16 16 17 17 16 14 13 13 13 14 13 13 13 13 15 16 16 14 12 9 7 8 10 14 16 16 14 14 17 21 23 25 26 25 23 20 18 16 15 16 16 16 16 15 15 14 14 14 14 14 14 15 16 17 18 19 19 18 17 15 14 14
14 14 15 16 17 18 17 17 17 17 17 16 14 13 12 12 11 10 10 11 12 14 15 14 11 9 8 8 11 13 15 14 14 16 19 22 24 24 25 25 23 19 16 16 16 16 16 15 14 13 13 12 12 13 13 13 13 13 14 15 17 18 20 20 19 16 14 13 15
15 15 15 16 16 17 17 16 16 16 16 15 12 11 11 11 9 8 7 9 11 14 16 14 11 9 11 13 14 12 11 13 17 20 23 23 24 24 24 23 20 17 15 16 17 17 16 15 13 12 11 11 11 12 12 12 12 13 14 15 17 19 20 19 16 14 12 13 15
16 17 18 18 18 18 17 16 15 14 13 12 9 9 9 10 8 7 8 11 15 17 18 16 13 9 9 9 8 9 12 15 19 21 22 22 23 22 22 21 18 15 14 15 17 17 16 15 13 12 11 11 11 12 12 12 13 14 16 17 18 19 18 15 13 12 12 14 15
16 17 19 20 20 19 18 16 14 12 10 8 6 6 7 8 7 8 10 12 14 15 16 16 16 11 4 4 8 11 13 15 17 19 20 20 19 17 16 15 14 13 13 15 16 17 17 16 14 13 11 11 11 12 13 14 15 16 17 18 18 17 14 12 11 11 12 14 15
16 17 18 20 21 20 19 17 14 12 9 6 5 6 7 8 7 7 9 10 10 12 14 16 16 14 9 8 10 12 13 13 14 15 15 14 12 9 8 10 11 12 13 14 15 17 17 16 14 13 11 11 12 14 15 16 17 18 18 17 16 14 12 11 11 11 12 13 14
14 15 16 17 19 20 19 17 14 11 8 6 5 6 8 8 7 7 7 7 8 11 13 14 15 15 12 9 9 10 12 12 12 12 11 8 5 3 4 7 9 11 12 13 15 16 16 15 14 12 11 12 14 17 19 20 20 19 17 15 14 13 11 10 10 10 10 11 13
13 13 14 15 17 18 18 16 13 9 6 6 6 6 7 7 8 7 5 5 7 9 11 11 11 12 13 11 9 8 9 10 10 9 7 4 2 2 4 6 8 10 11 12 13 14 14 13 12 11 11 14 17 20 21 21 20 17 16 15 14 13 11 11 10 9 9 10 10
12 12 12 14 15 17 17 15 11 8 5 5 6 6 6 6 9 9 6 4 6 8 10 9 8 9 9 9 8 7 6 6 6 6 4 3 3 3 3 4 7 9 10 10 11 12 12 12 11 11 12 15 18 20 20 19 18 17 17 16 14 13 12 11 10 10 9 9 9
11 11 11 13 15 16 15 13 10 7 5 4 5 5 5 6 8 9 7 5 6 8 10 9 8 7 6 5 5 4 4 3 3 3 4 4 5 4 3 4 7 9 10 11 12 12 11 11 10 11 13 16 17 17 18 18 19 19 18 16 15 13 12 12 11 11 10 10 10
10 10 10 12 14 14 14 12 9 7 5 5 5 5 5 5 6 7 7 6 6 7 8 8 7 6 4 3 2 2 2 3 3 4 4 5 5 5 4 4 7 10 11 12 12 12 12 11 11 12 13 14 15 17 18 19 20 19 18 16 15 13 13 12 12 11 11 11 11
9 9 10 11 12 12 12 10 8 7 6 6 6 6 6 6 6 5 5 5 6 6 7 6 5 4 3 1 0 1 2 3 4 5 5 5 5 5 5 5 7 10 12 13 13 13 12 11 12 12 13 14 16 18 19 19 19 18 16 15 14 13 13 12 12 12 12 13 13
9 9 10 11 11 11 11 10 8 7 7 7 7 7 6 6 6 5 4 5 6 6 6 5 4 3 2 1 1 2 3 3 4 5 5 5 5 5 7 8 9 11 12 13 12 12 11 12 13 14 15 16 16 17 18 17 17 15 14 13 13 13 13 13 13 13 13 13 13
9 9 10 10 10 10 10 10 9 8 7 7 7 8 7 6 6 4 3 3 5 6 6 6 5 4 3 2 2 1 1 2 2 3 4 5 6 7 9 10 12 13 13 12 11 11 12 14 17 19 19 18 17 17 16 16 15 14 14 13 13 12 12 12 12 13 13 14 13
9 9 10 10 10 10 10 10 9 9 8 8 8 8 8 7 6 5 4 4 4 5 5 6 7 6 5 4 3 3 2 1 0 2 3 5 7 8 10 11 13 13 13 12 12 13 16 19 20 21 21 20 18 17 16 15 15 14 15 15 14 13 12 11 11 12 13 14 13
9 9 9 10 10 10 9 9 8 8 7 7 7 8 8 8 6 5 4 5 5 5 5 6 7 7 6 4 3 3 3 3 4 5 6 7 8 9 10 11 12 12 12 12 14 18 21 22 21 21 20 20 18 17 15 14 14 14 15 15 15 14 13 12 11 11 12 13 13
10 10 10 11 10 10 9 8 6 5 5 6 6 6 6 6 5 4 3 4 5 5 4 4 4 4 4 4 3 4 4 6 7 7 8 9 9 9 10 10 11 11 11 12 17 21 23 22 21 20 20 19 18 16 14 14 14 14 14 14 14 13 12 11 10 10 10 12 11
11 12 12 12 11 10 9 7 4 3 3 4 4 4 3 3 3 2 2 3 4 4 3 3 2 2 2 2 3 4 5 6 6 7 7 8 8 9 9 10 10 10 11 12 17 22 24 23 22 21 21 20 18 16 15 14 14 14 14 13 12 11 11 10 9 9 9 9 8
13 13 13 12 11 10 8 6 3 2 2 3 3 3 2 2 2 2 2 2 2 2 1 1 0 1 1 1 2 2 3 3 4 4 4 6 7 8 8 9 10 10 11 12 16 20 23 23 22 21 21 20 18 17 15 14 14 13 13 12 11 10 9 8 7 7 7 6 6
14 14 13 11 9 8 7 6 4 3 3 4 4 4 3 4 4 3 3 2 2 2 1 1 3 4 6 7 9 10 10 10 11 10 8 6 5 6 8 9 10 11 12 14 16 19 21 22 21 19 19 18 18 17 15 14 13 12 11 10 10 9 8 7 5 4 4 4 5
14 14 12 9 7 6 6 7 6 5 4 4 4 4 3 2 2 2 2 2 2 1 3 5 8 10 13 15 16 16 16 15 15 13 11 8 5 5 7 10 12 14 15 16 18 19 20 19 17 16 17 18 17 16 15 13 12 11 10 10 9 8 7 6 5 4 5 5 6
14 13 11 8 5 5 6 7 6 5 3 2 2 4 6 7 7 6 5 5 6 8 10 12 14 15 16 17 18 18 17 17 16 14 11 8 5 4 7 10 14 15 17 18 18 17 16 15 15 16 17 17 17 15 14 12 11 10 10 10 9 9 8 7 7 7 7 7 7
13 12 9 6 5 5 5 4 3 2 4 7 10 13 14 14 13 13 13 14 14 14 15 15 15 15 15 16 16 16 16 16 15 13 11 9 7 7 8 10 13 14 15 15 15 14 14 14 15 16 17 17 16 14 13 12 11 11 10 10 10 9 9 9 8 8 8 8 9
10 8 5 5 7 8 7 5 4 7 11 14 16 17 16 15 14 14 15 16 16 15 14 13 12 12 13 13 14 14 14 13 12 11 10 10 10 10 11 12 12 13 13 12 12 12 12 13 14 15 15 15 14 13 12 12 11 11 10 10 10 10 9 9 9 9 9 9 10
5 4 6 9 11 12 12 11 12 13 15 17 17 16 16 16 15 14 14 15 15 14 13 12 11 11 10 10 10 11 11 11 11 11 11 12 12 12 13 13 13 13 12 11 11 10 11 11 12 13 13 13 12 12 12 12 11 11 10 10 10 9 9 9 9 9 9 10 10
7 9 10 11 12 12 13 13 14 14 15 14 14 14 14 15 15 15 15 14 15 15 15 14 13 12 11 9 8 8 8 9 9 10 11 11 11 11 11 12 12 12 11 10 9 9 9 10 11 11 11 11 10 10 10 11 10 10 10 10 9 9 9 9 9 9 9 9 9
9 11 10 9 9 9 9 10 10 10 10 10 10 10 11 11 12 13 14 14 15 16 17 17 17 15 13 11 7 5 5 6 7 7 8 8 8 8 8 9 10 10 9 8 8 8 9 10 10 10 9 9 9 9 9 9 10 10 10 10 10 10 9 9 9 9 10 10 9
7 8 8 8 7 6 6 6 7 7 8 8 7 7 7 7 8 8 9 10 12 14 16 17 17 16 14 10 6 3 3 3 4 5 5 6 6 6 6 7 8 9 9 9 9 9 9 9 8 8 8 8 8 8 9 9 10 10 10 10 10 10 10 10 10 10 10 9 8
7 7 7 7 7 7 6 7 7 8 7 7 6 6 5 5 4 4 4 4 5 8 10 12 13 12 10 7 4 1 1 2 3 4 4 5 5 5 5 5 6 7 8 9 9 8 7 6 6 6 7 7 8 8 9 9 9 10 10 10 11 11 11 11 11 10 10 8 7
Wind_Direction
308 308 308 307 306 304 303 303 303 302 301 298 295 293 290 288 287 285 284 283 282 282 282 283 283 283 282 281 280 281 282 283 283 281 279 276 272 266 258 249 240 233 227 220 213 207 203 197 194 196 200 204 206 207 209 213 218 221 223 224 226 229 231 233 234 234 232 227 224
311 311 311 310 309 307 305 305 304 303 302 300 297 295 292 289 287 286 284 283 283 284 285 285 284 283 281 279 278 280 281 283 282 280 277 275 271 267 258 244 230 216 203 193 194 196 196 195 198 201 205 206 208 211 213 216 218 218 218 220 224 227 230 233 234 233 229 224 220
314 313 312 311 311 310 309 307 306 305 304 303 301 299 296 294 291 289 288 287 287 287 287 286 284 281 278 276 275 276 278 280 280 279 277 275 271 268 259 237 215 199 192 190 194 198 200 202 204 205 205 207 209 211 212 212 211 211 213 216 221 226 230 232 232 229 224 218 218
316 315 313 311 310 310 309 308 308 308 309 308 307 304 301 299 297 295 293 292 291 288 286 284 281 277 274 272 271 272 274 276 277 277 276 274 270 266 256 233 210 201 198 197 199 203 206 205 202 200 200 202 203 204 204 204 205 208 213 218 222 227 230 231 229 223 218 216 218
321 319 316 312 310 309 309 309 310 311 310 307 304 302 302 302 301 300 298 295 292 288 285 281 276 273 271 270 270 271 272 273 273 273 272 271 266 260 251 233 213 208 206 205 204 205 205 201 196 194 195 197 198 199 201 205 209 213 217 220 224 226 228 226 221 217 215 218 220
326 324 320 316 313 311 310 311 312 311 306 299 296 297 301 302 302 301 299 296 293 289 285 281 277 273 272 271 272 273 272 270 268 267 267 266 261 254 244 231 219 214 212 209 205 203 200 195 191 191 192 194 196 200 206 213 216 216 217 219 221 222 221 218 215 216 218 219 217
326 323 321 318 314 310 309 311 312 311 307 303 301 303 305 305 303 301 299 297 295 292 289 285 281 278 276 275 275 275 273 270 267 266 265 263 257 247 235 227 222 219 213 206 200 196 193 190 189 189 190 191 194 199 207 214 216 216 216 217 218 218 217 216 217 219 218 214 207
322 319 317 316 312 309 308 309 312 313 313 314 314 313 312 309 307 305 303 300 298 296 292 289 285 282 280 279 279 278 276 274 272 270 267 261 251 238 227 222 221 216 207 196 191 188 187 186 188 189 191 193 195 198 202 207 210 212 213 215 216 217 217 217 218 218 214 206 195
320 316 314 312 310 309 308 308 310 312 315 317 317 315 312 312 311 311 309 306 303 301 298 295 291 287 284 281 281 280 280 279 278 273 266 256 242 229 221 219 212 203 193 185 181 181 181 183 187 191 194 196 199 201 202 202 204 206 209 212 213 215 215 214 212 209 204 197 189
320 317 315 313 312 313 313 312 312 313 315 316 316 313 311 311 312 312 311 309 306 304 303 300 296 291 287 285 284 284 285 285 283 277 266 250 233 221 214 207 196 187 181 177 175 175 178 184 188 193 196 198 201 204 206 207 207 207 208 210 212 211 209 206 202 199 194 190 187
321 320 320 319 319 319 318 317 319 321 323 322 319 315 311 309 309 308 307 305 303 303 302 300 296 294 292 293 293 293 291 288 286 282 269 244 221 208 198 188 181 177 175 172 171 173 179 186 192 195 196 198 200 203 208 211 212 212 211 212 210 207 202 198 194 190 188 186 183
321 324 327 328 329 328 326 326 328 331 332 331 327 321 315 311 308 305 302 300 300 299 297 296 298 298 298 300 298 293 286 282 277 269 251 220 198 187 181 177 175 174 172 169 170 175 183 190 195 197 198 197 198 200 205 209 213 214 214 212 208 203 198 193 189 187 185 183 177
321 328 334 336 335 334 332 332 333 336 338 340 338 333 325 318 312 306 302 300 299 298 298 300 303 305 301 292 279 272 269 265 255 236 208 186 176 173 173 174 174 173 171 170 172 178 186 193 199 202 202 200 200 201 204 208 213 217 217 213 206 200 196 192 189 187 185 182 175
323 329 334 336 334 332 331 332 333 336 340 344 345 342 338 333 326 319 311 307 309 315 319 320 315 304 292 280 271 264 255 241 216 192 177 170 168 169 171 174 174 173 173 173 175 181 189 195 201 206 208 207 207 207 207 210 215 221 221 216 208 201 196 193 190 188 185 179 175
327 329 331 330 328 327 327 328 329 333 337 341 342 343 345 348 348 342 338 343 355 0 360 353 333 300 278 269 264 251 224 195 180 173 169 167 167 169 171 173 174 177 179 178 178 184 191 196 201 207 211 214 215 214 214 216 219 224 225 220 210 202 196 191 188 183 178 175 175
331 332 331 329 327 326 325 325 326 330 333 336 334 338 347 356 5 17 28 31 28 23 18 12 357 327 285 256 230 196 174 167 167 167 167 166 166 167 170 172 176 183 187 186 184 186 190 195 200 205 210 215 219 220 220 221 223 226 225 217 207 197 190 183 176 170 169 171 174
334 335 333 331 330 329 330 330 329 330 331 331 333 342 354 4 22 46 57 53 38 28 23 22 17 14 25 143 155 154 152 154 159 161 162 162 162 165 170 176 183 191 195 194 191 190 191 193 197 202 207 213 219 222 223 224 225 224 218 208 196 185 175 166 162 162 167 172 176
336 337 336 335 335 336 337 338 335 332 332 336 353 2 3 10 31 58 71 66 46 34 32 34 31 32 51 104 130 139 141 143 147 152 155 156 157 164 177 187 193 196 197 197 195 193 192 192 195 198 203 212 220 225 227 227 226 220 209 195 180 167 158 155 159 165 172 177 181
336 337 338 339 340 341 342 340 336 333 335 351 10 7 2 8 28 52 71 74 54 43 41 44 38 33 38 66 102 126 135 138 141 145 148 149 155 172 191 196 198 197 197 196 194 192 190 190 192 196 204 214 222 226 228 226 222 213 197 178 162 153 151 154 161 168 176 182 186
336 337 338 340 342 342 341 338 335 335 343 359 9 6 3 9 22 35 56 78 60 44 39 40 35 28 28 39 64 95 120 136 143 147 150 156 178 190 190 193 195 193 190 188 188 187 188 189 192 198 208 218 224 225 224 220 212 198 179 162 153 150 151 154 158 166 176 185 191
336 338 339 340 341 341 340 339 339 345 356 357 358 2 7 11 16 21 37 76 61 38 26 25 21 17 20 33 52 71 95 126 148 161 172 182 180 175 181 186 182 178 175 176 180 183 186 190 195 204 214 221 222 220 214 206 192 177 164 156 153 152 152 152 156 163 172 182 191
339 340 340 341 342 342 342 343 347 353 355 344 350 2 10 8 7 13 27 54 45 27 19 20 17 15 20 35 57 77 100 129 159 183 191 182 167 162 166 168 163 164 167 173 179 184 189 194 201 211 217 218 214 206 195 184 173 164 159 156 154 152 151 152 156 161 167 175 184
343 344 344 345 347 346 346 348 351 351 348 345 348 354 357 355 354 6 24 40 32 21 19 21 20 19 20 34 66 105 131 152 167 180 182 176 167 166 171 170 160 163 171 179 184 188 192 198 205 210 209 204 194 184 175 167 163 159 157 154 152 151 152 155 157 160 163 168 175
347 348 348 349 350 349 349 350 353 354 351 348 345 342 339 339 342 358 23 43 39 30 22 19 15 10 7 13 97 155 167 172 177 179 177 173 169 175 186 188 171 171 177 186 190 190 192 196 196 192 185 178 172 167 161 158 156 155 154 153 152 153 155 158 159 160 161 163 166
348 349 348 348 348 348 350 353 356 357 355 351 344 340 337 336 340 352 17 44 47 37 23 8 357 348 337 310 240 204 190 183 178 172 168 166 169 182 194 195 184 180 184 191 192 190 187 184 175 165 158 156 156 154 153 152 153 153 152 152 154 157 162 164 165 165 164 163 162
347 346 345 344 344 346 350 353 356 358 358 353 346 340 336 335 337 343 360 26 35 28 13 354 345 339 333 314 292 265 224 181 163 156 159 168 178 189 195 194 188 186 189 193 189 182 175 167 158 151 148 147 148 150 153 155 154 152 150 149 153 158 163 168 172 173 173 170 168
343 343 343 342 343 345 348 351 353 354 354 352 345 338 334 331 329 330 338 357 8 8 1 351 345 344 344 342 339 336 335 330 228 186 188 195 196 196 195 193 190 190 191 190 179 168 161 157 153 150 149 150 153 156 159 160 157 155 153 154 156 159 162 169 178 184 185 182 178
338 339 340 341 342 344 345 347 348 347 345 342 338 334 330 328 325 325 336 352 354 353 352 352 348 344 341 339 334 324 304 280 259 244 233 225 217 210 204 199 195 195 192 184 169 160 156 155 154 153 154 156 160 163 165 165 163 162 162 164 166 169 172 177 185 190 190 186 183
334 333 336 339 340 340 339 339 339 338 334 331 331 331 331 331 332 335 349 356 352 344 334 333 335 331 323 309 295 279 265 254 247 242 237 232 224 217 210 205 201 198 192 180 165 159 157 156 156 157 160 162 165 168 170 171 169 168 168 170 173 178 183 190 194 189 181 177 177
331 331 332 334 334 333 331 328 325 321 321 325 330 333 339 344 348 355 4 6 360 347 330 316 312 305 292 278 264 253 244 239 234 228 221 216 212 209 206 203 199 195 187 176 167 164 163 163 164 166 167 168 169 171 173 174 173 171 171 172 176 182 191 199 199 186 171 166 169
331 331 330 329 328 326 324 322 319 324 337 338 334 330 328 332 333 342 355 5 1 346 326 300 187 131 112 117 142 160 166 165 165 167 173 179 183 187 188 187 184 178 172 168 168 171 174 177 177 175 172 170 170 171 173 174 173 173 173 174 178 185 196 205 201 184 169 168 176
332 331 329 327 324 321 321 325 334 349 355 341 321 307 296 290 295 303 306 298 287 272 244 134 114 105 100 97 96 95 95 96 98 99 101 110 134 154 161 161 160 158 159 162 169 177 183 186 182 175 168 166 168 169 170 171 173 174 175 177 181 188 198 209 208 194 184 194 205
333 332 331 329 324 322 325 333 339 340 334 315 296 285 278 277 288 289 280 263 244 195 124 104 99 99 100 98 94 90 88 89 92 93 92 88 93 121 140 145 148 152 158 165 172 179 182 180 172 163 160 162 164 166 167 170 173 176 180 183 187 192 200 210 216 217 218 222 225
335 335 337 338 338 339 338 335 328 315 288 237 153 108 91 82 79 80 86 96 105 107 104 100 99 101 104 106 103 100 98 99 103 105 105 101 102 122 140 144 148 154 160 165 168 168 165 158 152 151 155 159 162 164 167 171 177 182 186 189 193 198 203 210 217 222 226 228 230
337 340 347 2 17 19 7 345 309 235 163 126 101 86 77 73 74 80 87 93 98 101 102 102 103 106 111 115 116 115 114 114 118 124 130 134 139 141 140 138 143 149 152 153 151 147 143 141 145 150 155 159 161 164 169 177 184 189 193 197 200 204 209 215 220 225 228 230 231
342 349 13 52 61 59 55 58 105 122 111 94 79 70 66 67 73 83 94 100 103 103 102 103 105 109 114 121 126 130 133 135 137 137 135 131 129 127 123 122 126 130 132 132 132 133 137 142 148 154 157 160 162 167 174 183 190 195 200 205 209 214 219 225 229 233 233 232 231
10 52 81 83 80 76 75 80 91 93 88 79 71 68 68 71 78 88 100 108 108 106 102 100 99 100 102 108 118 127 134 137 133 123 112 105 106 109 112 114 115 116 117 119 123 130 139 147 154 158 162 165 169 175 182 190 197 203 209 215 220 227 233 238 239 237 232 227 223
85 92 88 83 81 80 81 83 84 82 78 74 74 75 76 77 81 89 98 107 109 107 104 101 97 93 90 89 91 98 108 114 115 111 106 100 99 103 107 113 116 116 116 119 125 135 145 155 163 168 172 174 178 184 191 199 207 213 219 224 230 236 241 243 237 228 218 210 204
92 86 78 74 75 79 81 82 81 77 73 70 71 76 79 81 84 88 94 100 104 106 107 106 105 104 104 103 95 87 91 100 107 111 111 108 106 106 111 119 126 129 132 137 145 154 162 170 176 180 184 187 191 198 206 214 219 223 225 228 232 235 236 232 221 207 197 193 192
74 71 64 59 60 64 66 67 64 60 55 52 52 57 65 74 81 88 95 99 102 106 108 110 114 117 121 124 121 106 93 104 114 122 126 126 123 122 124 129 136 144 152 159 166 172 178 184 188 193 198 203 210 218 224 227 228 227 228 229 232 230 223 211 199 191 188 190 196
49 46 45 44 47 51 53 53 53 55 57 55 41 34 38 49 61 78 95 107 113 118 120 121 124 131 139 149 158 163 116 124 135 143 148 148 146 144 141 141 146 154 163 170 174 178 184 191 199 206 213 220 225 228 229 229 231 233 234 235 232 223 208 193 187 186 189 194 202
Height
1438 1437 1436 1435 1434 1432 1431 1430 1429 1428 1427 1426 1424 1423 1423 1422 1422 1421 1421 1420 1420 1420 1419 1419 1419 1419 1420 1420 1420 1421 1421 1422 1422 1422 1422 1422 1422 1422 1423 1423 1423 1423 1425 1427 1429 1432 1434 1435 1436 1437 1437 1438 1440 1441 1443 1445 1447 1449 1450 1452 1453 1454 1455 1457 1458 1459 1460 1462 1463
1437 1436 1435 1434 1432 1431 1430 1428 1427 1426 1425 1424 1423 1422 1422 1421 1420 1419 1419 1419 1418 1418 1418 1417 1417 1418 1418 1418 1419 1419 1419 1419 1420 1420 1421 1421 1421 1421 1422 1423 1423 1424 1425 1428 1430 1432 1433 1434 1435 1436 1437 1437 1439 1441 1442 1444 1446 1448 1449 1451 1452 1453 1455 1456 1457 1458 1459 1461 1463
1436 1435 1433 1432 1431 1429 1428 1427 1426 1425 1424 1423 1422 1421 1420 1420 1419 1418 1418 1417 1417 1417 1416 1416 1416 1416 1417 1417 1417 1417 1417 1417 1417 1418 1418 1419 1420 1421 1422 1423 1424 1425 1426 1428 1430 1431 1431 1432 1434 1435 1436 1437 1438 1440 1442 1444 1445 1447 1448 1450 1451 1452 1453 1455 1456 1457 1459 1460 1462
1435 1433 1432 1431 1429 1428 1427 1426 1425 1424 1423 1422 1421 1420 1419 1419 1418 1417 1417 1416 1416 1415 1415 1415 1415 1415 1415 1415 1415 1415 1415 1415 1415 1416 1417 1417 1418 1420 1422 1424 1425 1426 1426 1427 1428 1429 1430 1431 1432 1434 1435 1436 1438 1439 1441 1442 1444 1446 1447 1449 1450 1451 1452 1454 1455 1457 1458 1460 1461
1433 1432 1431 1429 1428 1427 1426 1425 1424 1423 1422 1421 1420 1419 1418 1418 1417 1416 1416 1415 1414 1414 1413 1413 1413 1413 1413 1413 1413 1413 1413 1413 1414 1414 1415 1416 1417 1418 1421 1424 1425 1426 1426 1426 1427 1427 1428 1430 1432 1433 1435 1436 1437 1439 1440 1442 1443 1445 1447 1448 1450 1451 1452 1453 1455 1456 1457 1459 1460
1432 1431 1430 1428 1427 1426 1425 1424 1423 1422 1421 1420 1419 1418 1417 1417 1416 1415 1415 1414 1413 1412 1412 1412 1411 1411 1411 1411 1412 1412 1412 1412 1412 1413 1414 1414 1415 1416 1419 1422 1424 1425 1425 1426 1426 1426 1427 1430 1431 1432 1434 1435 1437 1438 1439 1441 1443 1445 1447 1448 1449 1450 1451 1452 1454 1456 1457 1458 1459
1432 1430 1429 1427 1426 1425 1424 1423 1422 1421 1420 1419 1418 1417 1417 1416 1415 1414 1414 1413 1412 1412 1411 1410 1410 1409 1409 1409 1410 1410 1410 1410 1411 1411 1412 1412 1413 1414 1417 1420 1422 1423 1424 1425 1425 1425 1427 1429 1430 1432 1433 1435 1436 1438 1440 1442 1443 1445 1446 1447 1448 1450 1451 1452 1453 1455 1456 1457 1458
1431 1430 1428 1427 1426 1425 1424 1423 1422 1421 1420 1419 1417 1417 1416 1415 1414 1414 1413 1412 1411 1411 1410 1409 1408 1408 1407 1407 1408 1408 1408 1408 1408 1409 1409 1410 1411 1412 1414 1417 1420 1422 1423 1424 1424 1425 1427 1428 1430 1431 1433 1435 1436 1438 1440 1442 1443 1445 1446 1447 1448 1449 1450 1451 1452 1454 1455 1456 1457
1430 1429 1427 1426 1425 1424 1423 1422 1421 1420 1419 1418 1417 1417 1416 1415 1414 1413 1412 1411 1410 1409 1409 1408 1407 1406 1406 1406 1406 1406 1406 1406 1406 1406 1406 1407 1408 1409 1412 1415 1418 1421 1422 1423 1423 1424 1426 1428 1430 1432 1433 1435 1437 1438 1440 1442 1443 1444 1445 1446 1447 1448 1449 1450 1452 1453 1454 1456 1457
1429 1428 1426 1425 1424 1423 1422 1421 1421 1420 1419 1418 1417 1416 1415 1415 1414 1413 1412 1411 1410 1409 1408 1407 1406 1405 1404 1404 1404 1403 1404 1404 1404 1403 1403 1404 1406 1408 1411 1414 1417 1419 1421 1422 1422 1424 1426 1428 1430 1432 1433 1435 1437 1438 1439 1441 1442 1443 1444 1445 1446 1447 1448 1450 1451 1452 1454 1455 1456
1429 1427 1426 1424 1423 1422 1422 1421 1420 1419 1418 1417 1417 1416 1415 1414 1413 1412 1411 1410 1409 1408 1407 1407 1406 1405 1403 1402 1402 1402 1402 1402 1402 1402 1402 1403 1405 1408 1411 1414 1416 1418 1419 1420 1422 1424 1426 1428 1430 1432 1433 1435 1436 1437 1438 1440 1441 1442 1443 1444 1445 1446 1447 1449 1450 1452 1453 1455 1456
1428 1427 1426 1424 1423 1422 1422 1421 1420 1419 1418 1417 1416 1415 1415 1414 1413 1412 1411 1410 1409 1408 1407 1407 1406 1404 1403 1402 1401 1401 1402 1402 1402 1402 1403 1405 1407 1409 1412 1414 1416 1417 1418 1420 1422 1424 1426 1428 1430 1431 1433 1434 1435 1436 1437 1438 1440 1441 1442 1443 1444 1446 1447 1448 1450 1451 1453 1454 1455
1428 1427 1426 1425 1423 1422 1422 1421 1419 1418 1417 1416 1415 1415 1414 1413 1412 1411 1410 1410 1409 1408 1407 1406 1405 1404 1403 1402 1402 1402 1402 1402 1403 1403 1405 1406 1408 1410 1412 1414 1416 1417 1418 1421 1423 1425 1426 1428 1429 1431 1432 1433 1434 1435 1437 1437 1439 1440 1441 1442 1444 1445 1447 1448 1449 1451 1452 1453 1455
1427 1427 1425 1424 1423 1422 1422 1420 1419 1418 1417 1416 1415 1415 1414 1413 1412 1411 1410 1409 1409 1408 1407 1406 1405 1404 1403 1402 1402 1402 1402 1403 1403 1405 1406 1407 1409 1411 1413 1415 1417 1418 1420 1422 1423 1425 1426 1427 1429 1430 1431 1432 1433 1435 1436 1437 1438 1439 1440 1442 1443 1444 1446 1448 1449 1451 1452 1453 1454
1427 1426 1425 1424 1423 1422 1421 1420 1419 1418 1417 1417 1416 1415 1414 1413 1412 1411 1410 1410 1409 1408 1407 1406 1405 1404 1403 1402 1402 1402 1402 1403 1405 1406 1407 1409 1411 1413 1415 1417 1418 1419 1421 1422 1423 1425 1426 1427 1428 1430 1431 1432 1433 1434 1435 1436 1437 1438 1440 1441 1442 1444 1446 1448 1449 1450 1452 1452 1454
1427 1426 1425 1423 1422 1422 1421 1420 1419 1418 1418 1417 1416 1416 1415 1413 1412 1412 1411 1411 1410 1409 1407 1406 1405 1403 1402 1402 1402 1402 1403 1405 1406 1407 1409 1411 1412 1414 1416 1418 1419 1420 1421 1422 1423 1425 1426 1427 1428 1429 1430 1432 1433 1434 1435 1436 1437 1438 1440 1441 1443 1445 1446 1447 1449 1450 1451 1452 1453
1426 1425 1424 1423 1422 1421 1420 1419 1419 1418 1418 1417 1417 1416 1415 1414 1413 1412 1412 1411 1410 1409 1408 1407 1406 1404 1403 1403 1403 1404 1405 1406 1408 1409 1411 1412 1414 1416 1417 1419 1420 1421 1422 1422 1423 1425 1426 1427 1428 1429 1430 1431 1432 1433 1435 1436 1437 1438 1440 1442 1443 1445 1446 1447 1449 1450 1451 1452 1453
1426 1425 1424 1423 1422 1421 1420 1419 1419 1418 1418 1417 1417 1416 1416 1415 1414 1413 1412 1412 1411 1411 1410 1408 1407 1406 1406 1406 1406 1407 1407 1408 1410 1411 1412 1414 1415 1417 1418 1419 1420 1421 1422 1422 1423 1424 1425 1427 1428 1429 1430 1431 1432 1433 1434 1435 1437 1438 1440 1442 1444 1445 1446 1447 1448 1450 1451 1452 1453
1426 1425 1424 1423 1422 1421 1420 1419 1418 1418 1418 1417 1417 1416 1416 1415 1415 1414 1413 1412 1412 1412 1411 1411 1409 1409 1408 1408 1408 1409 1410 1411 1412 1413 1414 1416 1417 1418 1419 1419 1420 1421 1422 1422 1423 1424 1426 1427 1427 1429 1430 1431 1432 1433 1434 1435 1437 1439 1441 1442 1444 1445 1446 1447 1448 1449 1450 1452 1452
1426 1425 1424 1423 1422 1421 1420 1419 1418 1418 1417 1417 1417 1416 1416 1415 1415 1415 1414 1413 1413 1413 1412 1412 1412 1411 1411 1411 1411 1411 1412 1413 1414 1415 1416 1417 1418 1418 1419 1419 1420 1421 1422 1423 1424 1425 1426 1427 1428 1429 1430 1431 1432 1433 1434 1436 1437 1440 1441 1443 1444 1445 1446 1447 1448 1449 1450 1451 1452
1426 1425 1424 1423 1422 1422 1420 1419 1418 1417 1417 1417 1417 1417 1416 1416 1415 1415 1415 1414 1414 1414 1414 1414 1413 1413 1413 1413 1413 1414 1414 1415 1416 1416 1417 1418 1418 1419 1419 1420 1421 1421 1422 1423 1424 1425 1426 1427 1428 1429 1430 1431 1432 1433 1435 1436 1438 1440 1441 1442 1444 1445 1446 1447 1447 1449 1450 1451 1452
1425 1425 1424 1423 1423 1422 1421 1419 1418 1418 1417 1417 1417 1417 1417 1416 1416 1416 1415 1415 1415 1415 1414 1414 1414 1414 1414 1414 1415 1415 1416 1416 1417 1417 1417 1418 1419 1419 1420 1420 1421 1422 1423 1424 1425 1425 1426 1427 1428 1429 1430 1431 1432 1434 1435 1437 1438 1440 1441 1442 1443 1444 1445 1446 1447 1448 1449 1450 1451
1425 1425 1424 1424 1423 1422 1421 1419 1418 1418 1417 1417 1417 1417 1417 1417 1417 1416 1416 1416 1416 1415 1415 1415 1415 1415 1415 1415 1415 1416 1416 1416 1417 1417 1418 1418 1419 1419 1420 1421 1422 1422 1423 1424 1425 1426 1427 1427 1428 1430 1431 1432 1433 1434 1436 1437 1438 1440 1441 1442 1443 1444 1445 1446 1447 1448 1449 1450 1451
1425 1424 1424 1423 1423 1422 1421 1420 1419 1418 1418 1417 1417 1417 1417 1417 1417 1417 1416 1416 1416 1416 1416 1416 1416 1416 1416 1416 1416 1416 1417 1417 1417 1417 1418 1418 1419 1420 1421 1422 1422 1423 1423 1424 1425 1426 1427 1428 1429 1430 1431 1432 1433 1435 1436 1437 1439 1440 1442 1442 1443 1444 1445 1446 1447 1448 1449 1450 1451
1425 1424 1424 1423 1422 1422 1421 1420 1419 1419 1418 1418 1417 1417 1417 1417 1417 1417 1417 1416 1416 1416 1416 1416 1416 1416 1416 1416 1416 1417 1417 1417 1417 1418 1418 1419 1419 1420 1421 1422 1422 1423 1424 1425 1425 1426 1427 1429 1430 1431 1432 1433 1434 1435 1437 1438 1439 1441 1442 1443 1443 1444 1445 1446 1447 1448 1449 1450 1452
1425 1424 1423 1423 1422 1422 1421 1420 1419 1419 1418 1418 1418 1417 1417 1417 1417 1417 1417 1416 1416 1417 1417 1417 1417 1417 1417 1417 1417 1417 1417 1417 1417 1418 1418 1419 1419 1420 1421 1422 1422 1423 1424 1425 1426 1427 1428 1429 1430 1432 1432 1433 1435 1436 1437 1438 1440 1441 1442 1443 1444 1444 1445 1446 1447 1448 1449 1450 1451
1425 1424 1423 1423 1422 1422 1421 1420 1420 1419 1419 1418 1418 1417 1417 1417 1417 1417 1417 1417 1417 1417 1417 1417 1417 1417 1417 1417 1417 1417 1417 1417 1417 1417 1418 1419 1419 1420 1421 1422 1422 1423 1424 1425 1426 1427 1429 1430 1431 1432 1433 1434 1436 1437 1438 1439 1440 1441 1442 1442 1443 1445 1446 1447 1447 1448 1449 1450 1451
1425 1424 1423 1422 1422 1421 1421 1420 1420 1419 1419 1418 1418 1418 1417 1417 1417 1417 1417 1417 1417 1417 1417 1417 1417 1417 1417 1417 1417 1417 1417 1417 1417 1417 1418 1419 1419 1420 1421 1422 1422 1423 1424 1425 1427 1428 1429 1431 1432 1433 1434 1435 1436 1437 1438 1439 1440 1441 1442 1442 1443 1445 1446 1447 1447 1448 1449 1450 1451
1424 1424 1423 1422 1422 1421 1421 1420 1420 1419 1419 1419 1418 1418 1417 1417 1417 1417 1417 1417 1417 1417 1417 1417 1417 1417 1417 1417 1417 1417 1417 1417 1417 1418 1418 1419 1420 1420 1421 1422 1422 1423 1425 1426 1427 1429 1430 1431 1432 1433 1434 1436 1437 1437 1438 1439 1440 1441 1442 1443 1444 1445 1446 1447 1447 1448 1449 1450 1451
1424 1423 1423 1422 1421 1421 1421 1420 1420 1419 1419 1419 1418 1418 1418 1417 1417 1417 1417 1417 1417 1417 1417 1417 1417 1417 1417 1417 1417 1417 1418 1418 1418 1418 1419 1419 1420 1421 1421 1422 1423 1424 1425 1426 1428 1429 1431 1432 1432 1433 1435 1436 1437 1438 1439 1440 1441 1442 1443 1443 1444 1445 1447 1447 1448 1448 1449 1450 1451
1424 1423 1422 1422 1421 1421 1420 1420 1419 1419 1419 1419 1418 1418 1417 1417 1417 1417 1417 1417 1417 1417 1417 1417 1417 1417 1418 1418 1418 1418 1418 1418 1419 1419 1419 1420 1420 1421 1422 1422 1423 1424 1426 1427 1428 1430 1431 1432 1433 1434 1435 1436 1437 1438 1439 1440 1442 1442 1443 1444 1445 1446 1447 1447 1447 1448 1449 1450 1450
1424 1423 1422 1421 1421 1420 1420 1419 1419 1419 1419 1419 1418 1418 1417 1417 1417 1417 1417 1417 1417 1417 1417 1418 1418 1418 1418 1419 1419 1419 1419 1419 1420 1420 1421 1421 1421 1422 1422 1423 1424 1425 1426 1427 1429 1430 1431 1432 1433 1434 1435 1437 1438 1439 1440 1441 1442 1442 1443 1444 1445 1446 1447 1447 1448 1448 1449 1450 1451
1423 1422 1422 1421 1421 1420 1420 1419 1419 1419 1419 1419 1418 1418 1418 1418 1417 1417 1417 1417 1417 1418 1418 1418 1419 1419 1419 1420 1419 1420 1420 1420 1421 1422 1422 1422 1422 1422 1423 1424 1425 1426 1427 1428 1429 1430 1431 1432 1433 1434 1436 1437 1438 1439 1440 1441 1442 1443 1444 1445 1445 1446 1447 1447 1448 1449 1449 1450 1451
1423 1422 1422 1421 1421 1420 1420 1419 1419 1419 1419 1419 1419 1419 1419 1419 1418 1418 1418 1418 1418 1419 1419 1419 1420 1420 1420 1420 1420 1421 1421 1422 1423 1423 1424 1424 1424 1424 1425 1425 1426 1427 1428 1429 1430 1431 1432 1433 1434 1435 1436 1437 1438 1439 1440 1441 1442 1443 1444 1445 1446 1447 1447 1448 1448 1449 1449 1450 1450
1423 1422 1422 1422 1421 1421 1421 1420 1420 1420 1420 1420 1420 1420 1420 1420 1420 1419 1419 1419 1420 1420 1420 1420 1421 1421 1421 1421 1422 1422 1422 1423 1423 1424 1425 1426 1426 1426 1426 1427 1428 1429 1429 1430 1431 1432 1433 1434 1435 1436 1437 1437 1438 1439 1440 1441 1442 1443 1444 1445 1446 1447 1447 1448 1448 1449 1449 1450 1450
1424 1423 1423 1422 1422 1422 1422 1421 1421 1421 1421 1421 1422 1421 1421 1421 1421 1421 1421 1421 1421 1421 1421 1422 1422 1422 1422 1422 1423 1423 1423 1424 1424 1425 1426 1426 1427 1427 1427 1428 1429 1430 1431 1432 1433 1434 1435 1435 1436 1436 1437 1438 1438 1439 1440 1442 1442 1443 1444 1445 1446 1447 1447 1447 1448 1448 1449 1449 1450
1425 1425 1425 1424 1424 1424 1423 1423 1423 1423 1423 1423 1423 1423 1422 1422 1422 1422 1422 1422 1422 1422 1422 1422 1422 1423 1423 1423 1424 1424 1425 1425 1425 1426 1427 1427 1428 1428 1429 1430 1431 1432 1432 1433 1434 1435 1435 1436 1437 1437 1438 1438 1439 1440 1441 1442 1443 1444 1444 1445 1446 1446 1447 1447 1448 1448 1449 1449 1450
1427 1427 1427 1426 1426 1426 1425 1425 1425 1425 1425 1424 1424 1424 1424 1424 1424 1424 1424 1424 1424 1424 1423 1423 1423 1424 1424 1424 1425 1425 1426 1426 1427 1427 1427 1428 1429 1430 1430 1431 1432 1432 1433 1434 1435 1436 1436 1437 1437 1438 1438 1439 1439 1440 1441 1442 1443 1444 1444 1445 1446 1446 1446 1447 1447 1448 1448 1449 1449
1429 1428 1428 1428 1427 1427 1427 1427 1427 1426 1426 1426 1426 1426 1426 1426 1426 1426 1426 1426 1426 1426 1425 1425 1425 1425 1425 1425 1426 1426 1427 1427 1428 1428 1428 1429 1430 1431 1432 1432 1433 1433 1434 1435 1436 1436 1437 1437 1438 1438 1439 1439 1440 1441 1442 1442 1443 1444 1444 1445 1445 1445 1446 1446 1447 1447 1448 1448 1449
1430 1430 1429 1429 1429 1428 1428 1428 1427 1427 1427 1427 1427 1427 1427 1427 1427 1427 1428 1428 1428 1427 1427 1427 1427 1427 1427 1427 1427 1427 1427 1428 1429 1429 1430 1430 1431 1432 1432 1433 1433 1434 1435 1435 1436 1436 1437 1437 1438 1438 1439 1440 1440 1441 1442 1442 1443 1443 1444 1444 1444 1445 1445 1446 1446 1447 1447 1448 1449
1431 1431 1431 1430 1430 1429 1429 1429 1428 1428 1428 1428 1428 1428 1428 1428 1428 1428 1429 1429 1429 1429 1429 1429 1428 1428 1427 1427 1427 1428 1428 1429 1429 1430 1430 1431 1431 1432 1432 1433 1434 1434 1435 1435 1436 1437 1437 1438 1438 1439 1439 1440 1441 1441 1442 1442 1442 1442 1443 1443 1444 1444 1445 1445 1446 1447 1447 1448 1448